Location: B?jaj?g
(11.7167°N, 92.6667°E)
Time: 22:15:06
(UTC+00:00)

deb Chang Zheng 4 - Pass Details

Date: 18 September 2020
Orbit: 602 x 626 km, 98.6° (Epoch: 30 October)

Event Time Altitude Azimuth Distance (km) Brightness Sun altitude
Rises 22:30:10 0° 356° (N) 2,859 7.0 -17.6°
Reaches altitude 10° 22:32:32 10° 345° (NNW) 1,952 6.0 -17.0°
Maximum altitude 22:36:14 29° 284° (WNW) 1,101 4.3 -16.1°
Enters shadow 22:36:46 29° 270° (W) 1,125 4.3 -15.9°
